Temperature
0 1 1 1 1 2 1 2 2 2 2 3 2 2 2 2 2 2 2 2 2 3 3 3 3 3 4 4 4 4 4 4 4 4 4 4 4 4 4 3 3 3 3 3
-0 1 1 1 1 1 1 2 1 2 2 2 1 2 1 1 1 1 1 1 2 2 2 3 3 3 3 3 3 3 3 3 3 3 3 3 3 3 3 3 3 3 3 3
-1 0 1 0 -0 0 0 0 1 1 1 1 0 0 0 1 1 1 1 1 1 2 2 2 2 3 3 3 3 3 3 3 3 3 3 3 3 2 2 2 2 2 2 2
-1 -1 -0 0 -0 -0 0 -0 0 1 1 1 0 0 0 1 1 1 1 1 1 1 2 2 2 2 2 2 2 3 3 2 2 2 2 2 2 2 2 2 2 2 2 2
-2 -1 -1 0 -0 -1 -0 -1 -0 -0 -0 -0 -0 -0 -0 0 0 0 1 1 1 1 1 2 2 2 2 2 2 2 2 2 2 2 2 2 2 1 1 1 1 1 1 1
-2 -1 -1 -1 -1 -1 -0 -1 -1 -1 -1 -1 -1 -1 -1 -0 -0 -0 0 1 1 1 1 1 2 2 2 2 2 2 2 2 2 2 2 1 1 1 1 1 1 1 1 1
-3 -2 -2 -2 -2 -1 -1 -1 -1 -1 -1 -2 -2 -1 -1 -1 -1 -0 -0 0 0 1 1 1 1 1 1 1 1 1 1 1 1 1 1 1 1 1 1 0 0 0 0 0
-3 -3 -2 -2 -2 -2 -2 -1 -2 -2 -2 -2 -2 -2 -1 -1 -1 -1 -0 -0 0 0 0 0 0 1 1 1 1 1 1 1 0 0 0 0 0 0 -0 -0 -0 -0 -0 -0
-3 -2 -2 -3 -2 -2 -2 -2 -2 -2 -2 -2 -2 -2 -2 -2 -1 -1 -1 -1 -0 -0 -0 -0 0 0 0 0 0 0 0 0 -0 -0 -0 -0 -0 -0 -1 -1 -1 -1 -1 -1
-4 -3 -3 -3 -3 -2 -2 -3 -2 -2 -3 -3 -3 -2 -2 -2 -2 -2 -2 -1 -1 -1 -1 -1 -1 -0 -0 -0 -0 -0 -0 -1 -1 -1 -1 -1 -1 -1 -1 -1 -1 -1 -1 -1
-4 -4 -4 -3 -3 -3 -3 -3 -3 -3 -3 -3 -3 -3 -3 -3 -2 -2 -2 -2 -2 -2 -1 -1 -1 -1 -1 -1 -1 -1 -1 -1 -1 -1 -1 -1 -1 -2 -2 -2 -2 -2 -2 -2
-4 -4 -4 -4 -3 -3 -3 -3 -3 -3 -3 -3 -3 -3 -3 -3 -3 -3 -3 -3 -3 -2 -2 -2 -2 -2 -2 -2 -1 -1 -1 -2 -2 -2 -2 -2 -2 -2 -2 -2 -2 -2 -2 -2
-4 -4 -4 -4 -4 -4 -4 -4 -4 -4 -4 -4 -4 -4 -4 -4 -4 -3 -3 -3 -3 -3 -3 -3 -3 -2 -2 -2 -2 -2 -2 -2 -2 -2 -2 -2 -2 -2 -2 -2 -2 -2 -2 -3
-5 -5 -5 -5 -5 -4 -4 -4 -4 -4 -4 -4 -4 -4 -4 -4 -4 -4 -4 -4 -4 -4 -4 -3 -3 -3 -3 -3 -3 -3 -3 -3 -3 -3 -3 -3 -3 -3 -3 -3 -3 -3 -3 -3
-5 -5 -5 -5 -5 -5 -5 -5 -4 -5 -5 -5 -5 -5 -5 -5 -5 -5 -5 -5 -4 -4 -4 -4 -4 -3 -3 -3 -3 -3 -3 -3 -3 -3 -3 -3 -3 -4 -4 -4 -3 -3 -3 -3
-6 -5 -5 -6 -6 -5 -5 -5 -5 -6 -5 -5 -5 -5 -5 -5 -5 -5 -5 -5 -5 -5 -5 -5 -4 -4 -4 -4 -4 -4 -4 -4 -4 -4 -4 -4 -4 -4 -4 -4 -4 -4 -4 -4
-6 -6 -6 -7 -6 -6 -6 -6 -6 -6 -6 -6 -6 -6 -6 -5 -5 -5 -5 -5 -5 -5 -5 -5 -5 -5 -5 -5 -4 -4 -4 -4 -4 -4 -4 -4 -4 -4 -4 -4 -4 -4 -4 -4
-7 -7 -7 -7 -7 -7 -7 -7 -7 -7 -7 -7 -6 -6 -6 -6 -6 -6 -6 -6 -6 -6 -6 -6 -6 -5 -5 -5 -5 -5 -5 -5 -5 -5 -5 -5 -5 -5 -5 -5 -5 -5 -5 -5
-7 -7 -7 -7 -7 -7 -7 -7 -7 -7 -7 -7 -7 -7 -7 -7 -7 -7 -7 -6 -6 -6 -6 -6 -6 -6 -6 -6 -6 -6 -6 -6 -6 -6 -6 -6 -6 -6 -6 -6 -5 -5 -5 -5
-8 -8 -8 -8 -7 -8 -8 -8 -8 -7 -7 -7 -7 -7 -7 -7 -7 -7 -7 -7 -7 -7 -7 -7 -6 -6 -6 -6 -6 -6 -6 -6 -6 -6 -6 -6 -6 -6 -6 -6 -6 -6 -6 -6
-8 -8 -8 -8 -8 -8 -8 -8 -8 -8 -8 -8 -8 -8 -8 -8 -8 -8 -7 -7 -7 -7 -7 -7 -7 -7 -7 -7 -7 -7 -7 -7 -7 -7 -7 -7 -6 -6 -6 -6 -6 -6 -6 -6
-9 -9 -9 -9 -8 -8 -8 -8 -8 -8 -8 -8 -8 -8 -8 -8 -8 -8 -8 -8 -8 -8 -8 -7 -7 -7 -8 -8 -8 -7 -7 -7 -7 -7 -7 -7 -7 -7 -7 -7 -6 -6 -6 -6
-9 -9 -9 -9 -9 -9 -9 -9 -9 -9 -9 -9 -9 -9 -9 -9 -9 -9 -8 -8 -8 -8 -8 -8 -8 -8 -8 -8 -8 -8 -8 -8 -7 -7 -7 -7 -7 -7 -7 -7 -7 -7 -6 -6
-9 -9 -9 -9 -9 -9 -9 -9 -9 -9 -9 -9 -9 -9 -9 -9 -9 -9 -9 -9 -9 -8 -8 -8 -8 -8 -8 -8 -8 -8 -8 -8 -8 -8 -8 -7 -7 -7 -7 -7 -7 -7 -7 -7
-10 -10 -10 -10 -10 -10 -10 -10 -10 -10 -9 -9 -9 -9 -9 -10 -9 -9 -9 -9 -9 -9 -9 -9 -9 -9 -9 -9 -8 -8 -8 -8 -8 -8 -8 -8 -8 -8 -7 -7 -7 -7 -7 -7
-10 -10 -10 -10 -11 -11 -11 -11 -10 -10 -10 -10 -10 -10 -10 -10 -10 -10 -9 -9 -9 -9 -9 -9 -9 -9 -9 -9 -9 -9 -9 -8 -8 -8 -8 -8 -8 -8 -8 -8 -8 -8 -8 -8
-10 -11 -11 -11 -11 -11 -11 -11 -11 -11 -11 -11 -10 -10 -10 -10 -10 -10 -10 -10 -9 -9 -9 -9 -9 -9 -9 -9 -9 -9 -9 -9 -9 -8 -8 -8 -8 -8 -8 -8 -8 -8 -8 -8
Wind_Speed
8 9 6 7 9 7 8 7 7 8 7 7 3 2 2 2 3 3 3 3 3 2 2 2 2 1 0 0 2 3 3 3 3 2 2 3 3 3 3 3 3 3 3 2
6 6 6 7 8 8 8 7 7 7 9 5 2 1 2 2 2 2 2 2 3 3 2 2 2 1 1 1 1 2 3 3 2 3 3 3 3 3 3 3 3 2 2 2
5 5 4 5 5 4 2 3 4 7 7 2 2 2 2 3 2 2 2 2 2 2 2 2 2 1 1 1 1 2 3 3 3 3 3 3 3 3 3 3 3 2 2 2
3 2 3 3 2 2 2 3 1 2 4 3 2 3 3 2 1 2 2 2 2 2 3 2 2 1 1 1 2 2 2 2 2 3 3 3 3 3 3 2 3 2 2 2
1 2 4 5 5 4 2 5 5 4 5 4 3 3 4 3 3 2 3 3 2 2 2 2 2 1 1 1 1 2 2 2 2 3 3 3 3 3 2 2 2 2 1 2
1 1 2 5 8 7 1 3 7 6 6 5 4 3 5 5 5 4 4 3 2 2 3 2 2 1 2 1 1 1 1 1 2 2 3 3 3 2 1 2 2 2 1 1
1 2 3 6 9 5 2 5 8 6 5 5 3 3 4 5 5 4 3 3 2 2 2 2 2 2 2 1 0 1 1 2 2 2 2 3 2 2 2 2 2 2 1 1
0 1 4 7 5 3 4 6 6 6 5 4 4 4 4 4 4 5 5 4 3 3 3 3 2 2 2 1 1 1 2 3 2 2 2 3 3 2 2 2 2 1 1 0
2 2 3 4 3 5 5 6 6 6 6 4 4 5 5 5 4 4 4 4 4 3 4 4 4 2 2 1 1 2 3 3 2 2 2 2 3 2 2 2 2 1 1 1
2 4 5 5 6 6 6 6 7 6 6 5 4 5 5 5 4 5 5 4 4 4 4 4 5 3 2 1 2 3 2 2 2 2 2 2 1 1 1 2 2 2 2 2
3 5 6 6 7 7 8 7 7 7 7 6 5 5 5 4 4 4 4 4 4 3 3 3 4 4 3 2 3 3 2 2 1 1 1 1 1 1 1 2 3 3 3 3
3 4 4 7 7 8 7 7 7 7 8 7 6 5 5 4 4 4 4 4 4 4 4 4 4 4 4 3 2 2 1 1 1 0 0 0 0 2 2 2 3 3 4 4
4 5 5 6 7 7 6 7 7 6 6 6 6 4 4 4 5 5 5 5 4 4 4 4 4 5 4 3 2 2 1 0 0 0 0 0 0 1 2 3 3 3 3 4
4 4 4 5 6 7 7 6 6 6 5 5 5 5 5 5 5 5 5 5 4 4 4 4 4 5 5 4 3 2 1 1 1 0 0 0 1 1 1 1 2 2 3 4
6 4 4 6 6 6 6 6 6 6 6 6 5 5 5 5 5 5 5 5 5 5 5 5 5 5 5 4 3 2 1 1 1 1 1 1 1 1 1 2 2 2 2 3
7 5 4 5 6 7 7 6 6 6 6 6 6 6 5 4 4 4 5 5 5 5 5 5 5 6 5 4 3 2 1 2 2 1 1 1 1 1 2 2 2 2 2 2
6 7 7 7 8 7 6 5 5 5 5 5 5 5 5 5 5 5 6 5 4 4 4 4 5 5 5 4 3 2 2 2 2 2 1 2 2 2 2 2 2 2 3 3
5 5 6 6 6 6 6 6 5 5 5 5 5 5 5 5 5 5 5 5 5 5 5 5 5 5 5 4 3 2 2 2 1 2 2 2 2 2 2 2 2 3 2 3
6 6 6 6 5 5 5 5 5 5 5 4 4 4 4 4 4 4 4 4 5 6 6 6 8 6 5 5 4 2 2 2 2 2 2 3 3 2 2 2 2 2 2 2
7 7 6 6 5 4 5 5 5 5 5 4 4 4 5 5 5 5 4 4 4 4 5 6 6 5 5 5 5 2 2 2 3 3 2 2 2 3 2 3 3 3 3 3
9 8 7 7 6 6 5 5 5 5 5 4 4 4 5 5 5 4 4 5 5 6 6 7 5 4 4 5 5 3 3 3 3 3 3 3 2 3 3 3 3 3 3 3
7 7 7 7 6 6 6 5 4 5 5 4 4 4 4 5 5 4 4 3 5 8 6 4 4 6 7 6 3 3 3 3 3 3 3 3 3 3 3 3 3 3 3 3
6 6 7 7 6 6 6 5 5 5 5 5 5 4 4 4 4 4 5 4 5 8 6 4 7 10 10 5 3 3 3 3 3 3 3 3 3 3 3 3 3 3 3 3
6 7 7 6 6 6 7 7 6 5 5 5 5 4 4 4 4 3 3 7 9 9 6 7 10 10 9 4 3 3 3 3 3 3 3 3 3 3 3 3 3 3 3 3
6 6 6 7 6 6 6 7 6 5 5 4 5 5 4 3 4 5 5 5 8 8 5 7 10 9 6 4 4 4 4 4 4 4 3 3 3 3 3 3 3 3 3 3
5 5 5 5 5 5 5 5 5 5 6 6 6 5 5 4 4 4 4 5 6 8 6 5 5 6 5 4 4 4 4 5 5 4 4 4 4 4 3 3 4 3 3 3
5 5 5 5 5 5 5 5 6 6 6 6 7 6 5 5 5 5 5 5 5 5 5 5 4 4 4 4 5 5 4 4 4 4 4 4 4 4 4 4 3 3 3 3
Wind_Direction
268 277 273 268 268 249 229 228 233 256 258 278 309 317 330 359 11 15 19 16 7 0 8 16 8 3 55 149 143 144 145 151 160 153 143 137 130 128 124 125 133 130 127 133
284 279 273 285 284 254 247 253 253 269 278 296 309 353 2 352 349 334 341 344 346 344 350 357 348 330 307 238 185 153 156 161 149 135 133 132 131 129 126 120 120 121 134 149
276 291 314 302 299 269 255 264 236 250 264 317 339 327 299 290 296 290 308 326 330 323 313 307 303 300 264 242 180 157 159 156 151 141 138 142 138 130 133 133 125 130 146 152
273 325 251 264 330 322 291 333 313 282 297 298 289 296 304 319 307 306 306 305 311 319 324 321 319 326 311 158 151 153 148 147 150 143 141 139 135 139 137 131 136 145 153 163
239 249 285 317 343 338 300 323 347 321 323 331 344 4 350 358 5 324 305 303 299 308 324 333 337 354 54 99 121 132 153 159 162 152 142 138 141 145 133 130 129 137 153 152
259 239 282 306 321 321 334 332 355 348 332 334 358 345 310 336 348 344 343 348 355 8 12 8 353 39 83 85 101 171 200 175 157 145 143 145 148 140 115 127 134 134 125 143
265 261 283 317 328 355 58 312 332 336 337 344 327 288 300 330 344 357 358 357 21 43 30 9 15 65 73 69 8 296 83 107 103 109 129 136 130 123 126 118 117 118 124 125
281 280 288 331 1 20 308 325 340 341 341 341 333 336 346 354 354 2 7 13 32 41 22 11 27 75 79 43 354 53 83 91 92 88 104 115 115 110 117 130 132 131 139 270
208 233 300 331 338 328 341 340 339 341 337 344 349 351 352 355 360 4 8 18 29 41 27 15 16 59 93 7 53 75 81 78 78 78 82 106 120 126 126 138 154 176 189 228
300 301 320 337 344 352 353 346 339 343 345 356 359 355 358 0 5 9 8 17 28 40 33 14 7 26 47 49 68 80 84 74 73 82 73 76 96 127 148 171 181 197 211 227
301 308 327 345 351 342 344 351 356 358 359 360 5 2 3 6 8 11 9 13 25 33 28 12 11 24 30 40 66 69 70 72 75 75 92 81 56 201 207 216 216 214 218 217
283 305 307 312 327 337 343 345 350 356 357 360 7 6 7 9 7 11 13 15 19 21 24 19 21 24 19 25 52 70 66 63 80 87 88 105 20 341 321 288 278 265 249 249
292 309 308 308 327 341 340 340 347 352 350 349 356 5 13 10 9 17 19 20 21 19 19 19 22 17 7 12 29 44 50 40 320 144 159 218 237 269 321 337 329 308 291 281
325 332 322 328 324 333 340 343 351 358 360 357 354 2 12 13 17 20 15 10 16 22 20 19 20 5 356 360 8 8 8 359 348 320 291 276 261 254 251 275 310 315 305 299
333 326 297 307 323 339 350 359 7 4 2 1 1 3 5 9 9 5 3 6 14 18 13 11 8 351 348 352 354 350 344 329 316 308 298 290 284 274 266 270 278 295 319 316
325 334 337 343 342 346 356 0 359 350 351 353 356 355 353 357 360 0 4 9 11 1 355 355 348 339 342 345 343 336 321 324 329 308 294 289 280 275 274 272 280 286 289 299
341 340 340 337 335 336 337 335 334 333 340 343 342 345 354 2 4 1 356 353 351 343 340 340 334 335 340 339 331 321 317 314 323 321 297 281 276 273 273 272 276 282 284 285
321 311 308 305 313 321 327 332 333 333 332 326 334 351 0 360 350 341 339 341 346 346 345 338 334 335 335 333 327 321 317 308 301 292 291 287 285 277 274 271 270 276 289 293
335 327 323 323 321 318 319 325 328 330 329 334 341 343 339 336 331 327 330 338 342 337 334 332 333 336 332 330 334 327 330 322 308 295 285 284 292 289 282 276 275 275 282 288
337 335 336 338 340 334 327 325 327 327 327 334 338 339 338 333 331 331 333 326 319 311 316 328 334 332 327 324 333 330 326 314 302 296 295 286 281 282 280 279 276 275 276 274
335 339 343 343 340 338 334 329 328 327 330 337 337 329 323 323 327 329 330 324 323 330 332 332 334 326 321 325 328 326 315 304 297 293 290 285 280 278 278 276 274 275 274 273
336 340 340 340 342 340 338 335 330 330 334 336 334 329 329 329 330 327 313 301 315 328 333 326 326 327 330 330 327 321 313 304 296 290 283 278 276 275 275 275 274 275 273 269
338 339 341 342 338 332 335 340 339 337 333 328 326 324 320 313 314 316 316 316 321 323 328 321 325 329 330 334 326 320 316 310 303 295 285 277 274 274 274 275 273 272 270 268
341 343 341 338 339 344 344 341 338 335 329 324 323 318 318 321 317 305 297 312 321 321 319 317 326 328 332 332 322 317 311 305 300 296 290 285 280 277 275 273 272 271 268 266
340 339 341 346 349 345 337 335 337 338 338 334 330 329 324 313 304 307 310 311 318 322 318 319 325 329 330 318 315 309 304 300 298 296 289 288 286 283 281 277 272 270 270 267
338 339 338 336 334 331 333 334 335 336 335 332 331 329 327 322 311 307 308 309 310 318 321 315 315 318 314 309 306 304 301 303 304 301 296 292 288 285 283 279 274 270 269 269
338 339 340 340 340 338 336 334 332 330 330 324 320 323 327 327 325 322 319 318 317 316 312 309 309 308 307 306 306 304 301 298 295 293 291 288 285 283 281 277 277 277 274 273
Height
1462 1458 1457 1455 1453 1453 1453 1452 1453 1446 1444 1438 1440 1439 1438 1438 1437 1437 1437 1437 1437 1437 1437 1438 1439 1439 1440 1441 1442 1443 1444 1446 1447 1448 1450 1452 1453 1454 1456 1457 1458 1460 1461 1463
1461 1455 1454 1453 1451 1449 1449 1448 1447 1445 1442 1439 1440 1439 1438 1437 1437 1437 1437 1437 1437 1437 1436 1436 1437 1438 1439 1439 1440 1441 1442 1443 1445 1446 1447 1449 1450 1452 1453 1454 1456 1457 1459 1460
1463 1456 1453 1455 1452 1448 1448 1446 1445 1444 1441 1440 1439 1438 1438 1437 1436 1436 1436 1437 1436 1436 1436 1436 1436 1437 1437 1438 1439 1439 1440 1441 1442 1444 1445 1446 1448 1449 1450 1452 1453 1455 1457 1458
1464 1460 1461 1454 1450 1448 1447 1445 1443 1441 1439 1438 1438 1437 1436 1436 1435 1435 1435 1435 1435 1434 1434 1435 1435 1436 1436 1437 1437 1438 1438 1439 1440 1442 1443 1444 1446 1447 1448 1450 1451 1453 1454 1456
1464 1461 1456 1452 1450 1449 1448 1446 1443 1442 1440 1439 1437 1435 1435 1435 1434 1434 1434 1434 1434 1433 1433 1434 1434 1434 1435 1435 1435 1436 1437 1438 1439 1440 1441 1442 1444 1445 1446 1448 1449 1451 1452 1453
1465 1463 1463 1457 1452 1447 1447 1447 1444 1443 1441 1439 1437 1438 1436 1434 1433 1433 1433 1432 1432 1432 1432 1432 1433 1433 1433 1434 1434 1435 1435 1436 1437 1438 1439 1441 1442 1443 1444 1446 1447 1448 1450 1451
1468 1466 1461 1458 1452 1448 1453 1452 1446 1443 1442 1440 1439 1439 1437 1434 1433 1432 1432 1432 1432 1431 1431 1431 1432 1432 1432 1433 1433 1434 1435 1435 1436 1437 1438 1439 1440 1442 1443 1444 1445 1446 1447 1448
1469 1470 1468 1458 1454 1455 1454 1450 1447 1444 1442 1440 1438 1437 1435 1433 1432 1431 1431 1431 1431 1430 1430 1431 1431 1431 1431 1432 1433 1433 1434 1434 1435 1436 1437 1438 1439 1440 1441 1442 1443 1444 1445 1445
1468 1469 1464 1460 1458 1456 1453 1450 1447 1445 1442 1440 1438 1436 1434 1433 1432 1431 1430 1430 1430 1430 1430 1430 1431 1431 1431 1431 1432 1432 1433 1433 1434 1435 1436 1437 1437 1438 1439 1440 1441 1441 1442 1442
1467 1464 1462 1460 1457 1455 1453 1451 1448 1446 1443 1440 1438 1436 1434 1433 1432 1431 1430 1430 1430 1430 1430 1430 1430 1430 1431 1431 1431 1431 1432 1433 1433 1434 1434 1435 1436 1437 1437 1438 1438 1439 1439 1440
1468 1464 1461 1458 1457 1455 1453 1451 1448 1446 1444 1441 1439 1437 1435 1433 1432 1431 1431 1431 1430 1430 1430 1430 1430 1430 1431 1430 1430 1430 1431 1432 1432 1433 1433 1433 1434 1435 1435 1436 1436 1437 1437 1437
1468 1466 1464 1461 1458 1456 1453 1451 1449 1446 1443 1442 1440 1438 1436 1434 1433 1432 1431 1431 1430 1430 1430 1429 1429 1429 1430 1430 1430 1430 1430 1431 1431 1431 1432 1432 1432 1433 1433 1434 1434 1434 1434 1435
1467 1465 1463 1461 1458 1456 1453 1451 1448 1446 1444 1442 1440 1439 1437 1435 1433 1432 1431 1431 1430 1430 1430 1429 1429 1429 1429 1429 1429 1429 1429 1429 1429 1430 1430 1430 1430 1430 1430 1431 1431 1431 1432 1432
1466 1464 1461 1459 1457 1455 1453 1451 1448 1446 1445 1443 1441 1439 1437 1435 1434 1433 1432 1431 1431 1430 1430 1429 1429 1428 1428 1428 1428 1428 1428 1428 1428 1428 1428 1428 1428 1428 1428 1428 1428 1428 1429 1429
1465 1463 1461 1459 1456 1454 1452 1449 1447 1445 1444 1442 1441 1439 1438 1436 1434 1433 1433 1432 1431 1430 1429 1429 1428 1428 1428 1427 1427 1426 1426 1426 1426 1426 1426 1426 1426 1426 1426 1425 1425 1425 1426 1426
1464 1462 1459 1457 1455 1453 1450 1448 1446 1444 1443 1442 1441 1439 1438 1436 1435 1434 1433 1432 1430 1429 1428 1428 1427 1427 1426 1426 1425 1425 1424 1424 1424 1423 1423 1423 1423 1423 1423 1423 1423 1423 1423 1423
1462 1460 1457 1455 1453 1451 1450 1448 1446 1444 1443 1441 1440 1439 1437 1436 1434 1433 1432 1431 1430 1429 1428 1427 1426 1425 1424 1424 1423 1422 1422 1421 1421 1421 1421 1421 1421 1420 1421 1421 1421 1421 1421 1421
1463 1460 1458 1455 1453 1450 1449 1447 1446 1444 1442 1441 1439 1438 1436 1435 1433 1432 1431 1430 1429 1428 1427 1426 1425 1424 1423 1422 1421 1420 1420 1419 1419 1418 1418 1418 1418 1418 1418 1418 1418 1418 1418 1418
1461 1458 1456 1454 1451 1449 1447 1446 1444 1442 1441 1439 1438 1437 1435 1434 1433 1432 1431 1429 1428 1426 1425 1424 1423 1422 1421 1420 1419 1418 1417 1417 1416 1416 1416 1416 1415 1415 1415 1415 1415 1415 1415 1415
1459 1456 1454 1452 1450 1448 1446 1444 1442 1441 1439 1438 1437 1436 1434 1433 1432 1431 1429 1428 1427 1425 1424 1423 1421 1420 1419 1418 1417 1416 1415 1415 1414 1414 1413 1413 1413 1413 1413 1413 1413 1413 1412 1412
1457 1454 1452 1450 1448 1446 1444 1442 1441 1439 1438 1437 1436 1434 1433 1432 1431 1429 1427 1426 1425 1424 1422 1421 1419 1418 1417 1415 1414 1414 1413 1412 1412 1411 1411 1411 1410 1410 1410 1410 1410 1410 1410 1409
1456 1453 1451 1448 1446 1444 1443 1441 1439 1438 1436 1435 1434 1432 1431 1430 1429 1427 1426 1425 1423 1422 1420 1419 1417 1416 1414 1413 1412 1411 1411 1410 1410 1409 1409 1408 1408 1407 1407 1407 1407 1407 1407 1406
1455 1453 1450 1448 1445 1443 1441 1440 1438 1436 1434 1433 1432 1430 1429 1428 1426 1425 1423 1423 1421 1420 1418 1417 1415 1414 1412 1411 1410 1409 1408 1408 1407 1407 1406 1406 1405 1405 1404 1404 1404 1404 1404 1403
1455 1452 1450 1447 1445 1442 1440 1438 1436 1435 1433 1431 1430 1428 1427 1425 1424 1423 1422 1420 1419 1417 1416 1414 1413 1411 1410 1409 1407 1406 1406 1405 1404 1404 1403 1403 1402 1402 1402 1401 1401 1401 1400 1400
1454 1452 1449 1446 1444 1441 1439 1437 1435 1433 1431 1430 1428 1427 1425 1424 1422 1420 1419 1418 1416 1415 1413 1412 1410 1409 1407 1406 1405 1404 1403 1402 1401 1401 1400 1400 1399 1399 1398 1398 1397 1397 1397 1396
1453 1451 1448 1446 1444 1441 1439 1436 1434 1432 1430 1427 1426 1424 1423 1421 1420 1418 1416 1415 1413 1412 1410 1409 1407 1406 1405 1403 1402 1401 1400 1399 1398 1398 1397 1396 1396 1395 1395 1394 1394 1394 1393 1393
1452 1450 1447 1445 1443 1440 1438 1435 1433 1431 1428 1426 1424 1422 1420 1418 1417 1415 1414 1412 1411 1409 1408 1406 1405 1403 1402 1401 1399 1398 1397 1396 1395 1394 1394 1393 1392 1392 1391 1391 1390 1390 1390 1389